Zurück zum Katalog

COSMOS 1652

GLONASS

AktivNavigationMEO
NORAD 15699·PAYLOAD·🇷🇺 Russia

Gestartet May 17, 1985 von Baikonur Cosmodrome

Loading…

Nächste Überflüge (nächste 24 Stunden)

TLE

AktuellSource: Space-Track

Epoche: Sep 11, 2026, 00:11 UTC

1 15699U 85037C   26254.00774279  .00000011  00000-0  00000-0 0  9990
2 15699  64.9276  70.1941 0018512  28.0852   3.6753  2.13067316321492

Verfolge COSMOS 1652 in Echtzeit mit AllMySat

Download on the App Store